Hourly Weather Holovchytsi

Today, 12 April, Monday

Time Temperature Precipitation Wind Pressure Humidity
00:00 +6°C° 0 mm 4 mps 747 mmHg 59%
01:00 +6°C° 0 mm 4 mps 747 mmHg 60%
02:00 +5°C° 0 mm 4 mps 747 mmHg 61%
03:00 +5°C° 0 mm 4 mps 746 mmHg 61%
04:00 +5°C° 0 mm 4 mps 746 mmHg 61%
05:00 +4°C° 0 mm 4 mps 746 mmHg 61%
06:00 +5°C° 0 mm 4 mps 746 mmHg 59%
07:00 +6°C° 0 mm 4 mps 746 mmHg 58%
08:00 +7°C° 0 mm 4 mps 746 mmHg 57%
09:00 +10°C° 0 mm 4 mps 746 mmHg 52%
10:00 +12°C° 0 mm 5 mps 745 mmHg 48%
11:00 +14°C° 0 mm 5 mps 745 mmHg 43%
12:00 +15°C° 0 mm 5 mps 745 mmHg 42%
13:00 +17°C° 0 mm 4 mps 745 mmHg 41%
14:00 +18°C° 0 mm 4 mps 744 mmHg 41%
15:00 +18°C° 0 mm 3 mps 744 mmHg 42%
16:00 +18°C° 0 mm 3 mps 744 mmHg 44%
17:00 +18°C° 0 mm 3 mps 744 mmHg 45%
18:00 +16°C° 0 mm 3 mps 744 mmHg 50%
19:00 +13°C° 0 mm 3 mps 744 mmHg 55%
20:00 +12°C° 0 mm 3 mps 744 mmHg 59%
21:00 +11°C° 0 mm 3 mps 744 mmHg 60%
22:00 +12°C° 0 mm 2 mps 744 mmHg 61%
23:00 +10°C° 0 mm 2 mps 744 mmHg 61%

Tomorrow, 13 April, Tuesday

Time Temperature Precipitation Wind Pressure Humidity
00:00 +10°C° 0 mm 2 mps 744 mmHg 61%
01:00 +10°C° 0 mm 2 mps 744 mmHg 61%
02:00 +10°C° 0 mm 2 mps 744 mmHg 61%
03:00 +11°C° 0 mm 1 mps 744 mmHg 62%
04:00 +11°C° 0 mm 1 mps 744 mmHg 62%
05:00 +11°C° 0 mm 1 mps 744 mmHg 63%
06:00 +11°C° 0 mm 1 mps 744 mmHg 64%
07:00 +12°C° 0 mm 1 mps 744 mmHg 66%
08:00 +12°C° 0 mm 1 mps 744 mmHg 67%
09:00 +13°C° 0 mm 1 mps 744 mmHg 62%
10:00 +14°C° 0 mm 1 mps 744 mmHg 57%
11:00 +15°C° 0 mm 1 mps 743 mmHg 53%
12:00 +16°C° 0 mm 1 mps 743 mmHg 51%
13:00 +18°C° 0 mm 1 mps 743 mmHg 49%
14:00 +19°C° 0 mm 1 mps 743 mmHg 46%
15:00 +17°C° 0.1 mm 2 mps 742 mmHg 51%
16:00 +16°C° 0.1 mm 2 mps 742 mmHg 55%
17:00 +16°C° 0.1 mm 3 mps 742 mmHg 59%
18:00 +13°C° 0 mm 3 mps 742 mmHg 68%
19:00 +11°C° 0 mm 4 mps 742 mmHg 76%
20:00 +10°C° 0 mm 4 mps 742 mmHg 85%
21:00 +8°C° 0 mm 4 mps 742 mmHg 86%
22:00 +8°C° 0 mm 3 mps 742 mmHg 87%
23:00 +8°C° 0 mm 3 mps 741 mmHg 89%

Day after tomorrow, 14 April, Wednesday

Time Temperature Precipitation Wind Pressure Humidity
00:00 +8°C° 0 mm 3 mps 741 mmHg 89%
01:00 +7°C° 0 mm 3 mps 741 mmHg 89%
02:00 +7°C° 0 mm 3 mps 741 mmHg 89%
03:00 +7°C° 0 mm 3 mps 741 mmHg 90%
04:00 +7°C° 0 mm 3 mps 740 mmHg 90%
05:00 +5°C° 0 mm 3 mps 740 mmHg 90%
06:00 +5°C° 0.1 mm 3 mps 740 mmHg 90%
07:00 +5°C° 0.1 mm 3 mps 740 mmHg 90%
08:00 +5°C° 0.1 mm 3 mps 740 mmHg 90%
09:00 +5°C° 0.3 mm 3 mps 741 mmHg 90%
10:00 +5°C° 0.3 mm 3 mps 741 mmHg 90%
11:00 +5°C° 0.3 mm 4 mps 741 mmHg 90%
12:00 +5°C° 0.2 mm 4 mps 741 mmHg 90%
13:00 +5°C° 0.2 mm 4 mps 741 mmHg 89%
14:00 +4°C° 0.2 mm 4 mps 741 mmHg 88%
15:00 +4°C° 0.1 mm 4 mps 741 mmHg 89%
16:00 +4°C° 0.1 mm 4 mps 741 mmHg 89%
17:00 +3°C° 0.1 mm 4 mps 741 mmHg 90%
18:00 +3°C° 0.3 mm 4 mps 741 mmHg 91%
19:00 +3°C° 0.3 mm 3 mps 741 mmHg 92%
20:00 +2°C° 0.3 mm 3 mps 742 mmHg 93%
21:00 +2°C° 0.1 mm 3 mps 742 mmHg 94%
22:00 +2°C° 0.1 mm 3 mps 741 mmHg 94%
23:00 +2°C° 0.1 mm 3 mps 741 mmHg 95%

15 April, Thursday

Time Temperature Precipitation Wind Pressure Humidity
00:00 +3°C° 0 mm 2 mps 741 mmHg 95%
01:00 +3°C° 0 mm 2 mps 741 mmHg 96%
02:00 +2°C° 0 mm 2 mps 741 mmHg 96%
03:00 +2°C° 0 mm 2 mps 741 mmHg 97%
04:00 +2°C° 0 mm 2 mps 741 mmHg 97%
05:00 +2°C° 0 mm 2 mps 741 mmHg 97%
06:00 +2°C° 0 mm 2 mps 741 mmHg 97%
07:00 +3°C° 0 mm 2 mps 741 mmHg 97%
08:00 +3°C° 0 mm 2 mps 741 mmHg 97%
09:00 +3°C° 0.1 mm 2 mps 741 mmHg 96%
10:00 +3°C° 0.1 mm 2 mps 741 mmHg 96%
11:00 +3°C° 0.1 mm 2 mps 742 mmHg 96%
12:00 +3°C° 0.1 mm 2 mps 742 mmHg 95%
13:00 +3°C° 0.1 mm 2 mps 742 mmHg 95%
14:00 +3°C° 0.1 mm 3 mps 742 mmHg 94%
15:00 +3°C° 0.1 mm 3 mps 741 mmHg 94%
16:00 +3°C° 0.1 mm 3 mps 741 mmHg 94%
17:00 +3°C° 0.1 mm 3 mps 741 mmHg 94%
18:00 +3°C° 0.2 mm 3 mps 741 mmHg 94%
19:00 +3°C° 0.2 mm 3 mps 741 mmHg 95%
20:00 +3°C° 0.2 mm 4 mps 741 mmHg 96%
21:00 +1°C° 0.3 mm 4 mps 741 mmHg 96%
22:00 +1°C° 0.3 mm 4 mps 741 mmHg 96%
23:00 +1°C° 0.3 mm 5 mps 741 mmHg 96%

16 April, Friday

Time Temperature Precipitation Wind Pressure Humidity
00:00 +1°C° 0.5 mm 5 mps 741 mmHg 96%
01:00 +1°C° 0.5 mm 5 mps 740 mmHg 96%
02:00 +1°C° 0.5 mm 5 mps 740 mmHg 97%
03:00 +1°C° 0.9 mm 5 mps 740 mmHg 97%
04:00 +1°C° 0.9 mm 5 mps 740 mmHg 97%
05:00 0°C° 0.9 mm 5 mps 740 mmHg 97%
06:00 0°C° 0.9 mm 5 mps 740 mmHg 97%
07:00 0°C° 0.9 mm 5 mps 740 mmHg 97%
08:00 0°C° 0.9 mm 4 mps 740 mmHg 97%
09:00 +1°C° 0.2 mm 4 mps 740 mmHg 97%
10:00 +1°C° 0.2 mm 4 mps 740 mmHg 97%
11:00 +1°C° 0.2 mm 4 mps 740 mmHg 96%
12:00 +2°C° 0.1 mm 5 mps 740 mmHg 96%
13:00 +2°C° 0.1 mm 5 mps 740 mmHg 95%
14:00 +2°C° 0.1 mm 5 mps 740 mmHg 94%
15:00 +2°C° 0.6 mm 5 mps 740 mmHg 95%
16:00 +2°C° 0.6 mm 6 mps 739 mmHg 96%
17:00 +2°C° 0.6 mm 6 mps 739 mmHg 97%
18:00 +3°C° 2 mm 5 mps 739 mmHg 97%
19:00 +3°C° 2 mm 5 mps 739 mmHg 97%
20:00 +5°C° 2 mm 4 mps 739 mmHg 98%
21:00 +5°C° 0.7 mm 3 mps 739 mmHg 98%
22:00 +5°C° 0.7 mm 3 mps 740 mmHg 98%
23:00 +6°C° 0.7 mm 2 mps 740 mmHg 98%

17 April, Saturday

Time Temperature Precipitation Wind Pressure Humidity
00:00 +5°C° 0 mm 2 mps 740 mmHg 98%
01:00 +6°C° 0 mm 1 mps 741 mmHg 98%
02:00 +6°C° 0 mm 1 mps 741 mmHg 98%
03:00 +6°C° 0 mm 1 mps 741 mmHg 98%
04:00 +6°C° 0 mm 1 mps 742 mmHg 98%
05:00 +6°C° 0 mm 1 mps 742 mmHg 98%
06:00 +7°C° 0 mm 1 mps 742 mmHg 96%
07:00 +8°C° 0 mm 1 mps 743 mmHg 94%
08:00 +8°C° 0 mm 1 mps 743 mmHg 92%
09:00 +8°C° 0 mm 2 mps 743 mmHg 85%
10:00 +9°C° 0 mm 3 mps 744 mmHg 78%
11:00 +11°C° 0 mm 3 mps 744 mmHg 71%
12:00 +11°C° 0.1 mm 4 mps 744 mmHg 67%
13:00 +12°C° 0.1 mm 4 mps 744 mmHg 64%
14:00 +13°C° 0.1 mm 4 mps 744 mmHg 60%
15:00 +12°C° 0.1 mm 4 mps 745 mmHg 64%
16:00 +12°C° 0.1 mm 4 mps 745 mmHg 67%
17:00 +12°C° 0.1 mm 3 mps 745 mmHg 71%
18:00 +10°C° 0.1 mm 3 mps 745 mmHg 75%
19:00 +9°C° 0.1 mm 3 mps 746 mmHg 79%
20:00 +8°C° 0.1 mm 3 mps 746 mmHg 83%
21:00 +7°C° 0 mm 2 mps 746 mmHg 84%
22:00 +7°C° 0 mm 2 mps 747 mmHg 84%
23:00 +7°C° 0 mm 2 mps 747 mmHg 85%
Show more